Погода в Варангале

Индия     17°58′48″N   79°36′02″E
темп.,
°C
ветер,
м/с
пор.,
м/с
влажн.,
%
обл.,
%
осадки,
мм/ч
давл.,
гПа
погр.,
м
11 апреля, вс
вс1123:30+28ююв610510 0.1 1012500
02:30+26ю59574 0.0 1010400
05:30+24ююв38711 0.0 1012304
08:30+29ю55540 0.0 1014774
11:30+35ю32320 0.0 10121842
14:30+38юв222253 0.0 10083957
17:30+36ююв3424100 0.1 1007369
20:30+33сз233193 0.5 101194
12 апреля, пн
пн1223:30+29юв464675 1.9 1012286
02:30+27ююв5761100 0.1 1011334
05:30+26ююв587088 0.1 1012390
08:30+27ююв566693 0.0 1015494
11:30+34ююв553413 0.0 10121189
14:30+37вюв542474 0.0 10082926
17:30+35св122927 0.0 1008741
20:30+30с593940 0.0 1011361
13 апреля, вт
вт1323:30+28ююв485578 0.1 1012369
02:30+27ю486534 0.0 1009281
05:30+26ююз510675 0.0 1010286
08:30+31ю45465 0.0 1013577
11:30+36ююв43283 0.0 10111832
14:30+40вюв4417100 0.0 10064536
17:30+34сз672574 0.1 1007620
20:30+32юв353025 0.3 1009127
14 апреля, ср
ср1423:30+29ю610505 0.4 1011481
02:30+28ю5105862 0.0 1008362
05:30+26ю496332 0.0 1009291
08:30+31ю67465 0.0 1012712
11:30+37ю442892 0.0 10101694
14:30+40ююв341824 0.0 10054327
17:30+29ссз7124258 0.2 1006323
20:30+29ссз584178 1.2 1011593
15 апреля, чт
чт1523:30+26вюв125560 1.9 101280
02:30+26в51060100 0.8 1010492
05:30+24юв466594 0.8 1011216
08:30+31ююз454129 0.0 1012583
11:30+37зюз34214 0.0 10091937
14:30+40сз221493 0.0 10054137
17:30+38ююв121631 0.1 10041075
20:30+34ю462287 0.1 1006122